Regional Weather Roundup
Issued by NWS Nashville, TN

Home | Current Version | Previous Version | Text Only | Print | Product List | Glossary On
Versions: 1 2 3 4 5 6 7 8 9 10 11 12 13 14 15 16 17 18 19 20 21 22 23 24 25 26 27 28 29 30 31 32 33 34 35 36 37 38 39 40 41 42 43 44 45 46 47 48 49 50
000
ASUS44 KOHX 020110
RWROHX
MIDDLE TENNESSEE HOURLY WEATHER ROUNDUP
NATIONAL WEATHER SERVICE NASHVILLE TN
800 PM CDT WED JUL 01 2015

NOTE: "FAIR" INDICATES FEW OR NO CLOUDS BELOW 12,000 FEET WITH
NO SIGNIFICANT WEATHER AND/OR OBSTRUCTIONS TO VISIBILITY.

* THESE REPORTS ARE NOT UNDER NWS QUALITY CONTROL AND MAY NOT
  REPORT WEATHER SUCH AS PRECIPITATION AND FOG.


TNZ005>011-023>034-057-059-062>066-078-080-020200
...NORTHERN MIDDLE TENNESSEE...

CITY           SKY/WX    TMP DP  RH WIND       PRES   REMARKS
CLARKSVILLE    PTCLDY    74  68  81 S8        29.95S
CROSSVILLE     CLOUDY    67  62  84 W5        30.03R
GALLATIN       CLOUDY    72  32  23 S3        29.99R
DICKSON        PTCLDY    70  66  88 S5        29.98R
LIVINGSTON     CLOUDY    69  64  84 SW9       29.99R
NASHVILLE      CLOUDY    70  69  97 SW5       29.99R
ROCKWOOD       CLOUDY    67  66  96 SW8       30.01S
SMYRNA         CLOUDY    70  68  93 CALM      30.00R
SPARTA         MOCLDY    70  68  94 SW5       29.99R
$$
TNZ056-058-060-061-075>077-079-093>097-020200
...SOUTHERN MIDDLE TENNESSEE...

CITY           SKY/WX    TMP DP  RH WIND       PRES   REMARKS
COLUMBIA       MOCLDY    72  72 100 S6        29.98S
MCMINNVILLE    MOCLDY    68  68 100 SW7       30.01R
SHELBYVILLE    MOCLDY    70  70 100 CALM      30.02R
TULLAHOMA      CLEAR     66  66 100 CALM      30.03R
WINCHESTER     CLEAR     66  66 100 SE3       30.02R
$$


...KEY TO REMARKS...
VSB - VISIBILITY IN MILES
WCI - WIND CHILL INDEX
HX  - HEAT INDEX




USA.gov is the U.S. government's official web portal to all federal, state and local government web resources and services.